National Weather Service United States Department of Commerce

Latest Hourly Weather Roundup

TOPSWRTT 000
TTAA00 KICT 212212

Wichita AWIPS Roundup
National Weather Service Wichita KS
400 PM CST MON JAN 21 2019

....Central Kansas....
  
CITY           SKY/WX    TMP DP  RH WIND       PRES   REMARKS
RUSSELL        CLOUDY    39  34  82 SE9       29.59F WCI  33          
SALINA         CLOUDY    41  32  70 SE12      29.68R WCI  34          
GREAT BEND     CLOUDY    44  34  67 S20G28    29.57F WCI  36          
ELLSWORTH      SUNNY     41  32  70 SE12      29.62F WCI  34          
LYONS          FAIR      44  33  65 S20       29.61F WCI  36          
MCPHERSON      SUNNY     45  34  65 S20       29.65S WCI  37          
HAYS           CLOUDY    39  33  79 SE10      29.58F WCI  32          

....South Central Kansas....
  
CITY           SKY/WX    TMP DP  RH WIND       PRES   REMARKS
HUTCHINSON     CLOUDY    45  35  68 S16G26    29.64S WCI  38          
NEWTON         CLOUDY    42  33  70 S17G23    29.66F WCI  34          
KINGMAN        SUNNY     50  37  62 S20G31    29.63S                  
WICHITA (ICT)  CLOUDY    48  35  60 S23G37    29.65F                  
JABARA ARPT    CLOUDY    46  33  60 S26G39    29.65F                  
BEECH ARPT     FAIR      46  32  60 S20G29    29.67F                  
MCCONNELL AFB  CLOUDY    47  32  56 S26G32    29.66F                  
BENTON         FAIR      46  31  57 S17G31    29.67F                  
EL DORADO      FAIR      43  32  65 SE25G35   29.68F WCI  33          
AUGUSTA        FAIR      46  32  57 S26G33    29.67F                  
HARPER           N/A     52  36  54 MISG      29.70R                  
WELLINGTON     NOT AVBL                                               
WINFIELD       MOSUNNY   51  31  46 S24G38    29.71F                  
 
....Southeast Kansas....
  
CITY           SKY/WX    TMP DP  RH WIND       PRES   REMARKS
EUREKA         CLOUDY    40  29  64 SE28G36   29.76F WCI  29          
IOLA           FAIR      41  26  57 SE21G30   29.84F WCI  31          
CHANUTE        CLOUDY    43  28  55 S21G33    29.84F WCI  34          
PARSONS        CLOUDY    46  27  47 S17G31    29.86F                  
COFFEYVILLE    PTSUNNY   45  28  51 S24G37    29.87F WCI  36          
INDEPENDENCE   CLOUDY    46  28  51 SE24G35   29.85F                  
FORT SCOTT     SUNNY     37  25  60 SE15G26   29.87F WCI  28          
PITTSBURG      CLOUDY    41  26  56 SE14G20   29.88F WCI  33          

....Western Kansas....
  
CITY           SKY/WX    TMP DP  RH WIND       PRES   REMARKS
GOODLAND       CLOUDY    28  27  96 SE9       29.45F WCI  19          
HILL CITY      CLOUDY    33  29  85 SE10      29.58F WCI  25          
LIBERAL        CLOUDY    62  36  37 SE9       29.47F                  
GARDEN CITY    CLOUDY    44  36  73 E5        29.48F                  
DODGE CITY     CLOUDY    49  35  58 SE15      29.51F                  
PRATT          MOSUNNY   48  34  57 S20G29    29.58F                  
MEDICINE LODGE   N/A     51  35  54 S18G36    29.61F                  

....Northeast Kansas....
  
CITY           SKY/WX    TMP DP  RH WIND       PRES   REMARKS
CONCORDIA      CLOUDY    34  28  79 SE14      29.70R WCI  25          
TOPEKA         CLOUDY    32  23  69 SE20      29.82F WCI  20          
MANHATTAN      CLOUDY    35  28  75 SE12G24   29.73F WCI  27          
LAWRENCE       CLOUDY    33  22  63 SE21G29   29.85F WCI  21          
OLATHE         CLOUDY    31  20  63 SE20G31   29.85F WCI  19          
EMPORIA        CLOUDY    37  29  72 SE24G36   29.73F WCI  26          

....Oklahoma....
  
CITY           SKY/WX    TMP DP  RH WIND       PRES   REMARKS
GAGE           CLOUDY    60  31  33 MISG      29.57F                  
PONCA CITY     SUNNY     53  30  41 S30G40    29.74F                  
BARTLESVILLE   MOSUNNY   48  31  51 S22G32    29.86F                  
TULSA          PTSUNNY   49  27  42 S21G37    29.86F                  
OKLAHOMA CITY  CLOUDY    55  33  43 S30G39    29.77S                  

Note: "fair" indicates few or no clouds below 12,000 feet with no
significant weather and/or obstructions to visibility.